This demonstration page uses our WeatherBlox Daily Observations layout. Learn more.

41.86663, -103.66717

Hourly Observations for January 21, 2020

Temp ( °F °C ) Dew Point ( °F °C ) Humidity (%) Winds ( mph kmh ) Pressure ( in mb ) Visibility ( mi km ) Precip ( " mm )
12:53 am 00:53 Clear 24 -4.4 19 -7.2 81 81 E 7 11 30.2 1023 10 16.0934 0 0
1:53 am 01:53 Clear 25 -3.9 19 -7.2 78 78 E 12 19 30.16 1022 10 16.0934 0 0
2:53 am 02:53 Clear 24 -4.4 19 -7.2 81 81 ESE 8 13 30.14 1021 10 16.0934 0 0
3:53 am 03:53 Clear 22 -5.6 18 -7.8 85 85 ESE 10 17 30.13 1020 10 16.0934 0 0
4:53 am 04:53 Clear 22 -5.6 18 -7.8 85 85 SE 7 11 30.14 1021 10 16.0934 0 0
5:53 am 05:53 Clear 22 -5.6 19 -7.2 89 89 ESE 9 15 30.12 1020 10 16.0934 0 0
6:53 am 06:53 Partly Cloudy 21 -6.1 18 -7.8 88 88 ESE 8 13 30.13 1020 10 16.0934 0 0
7:53 am 07:53 Sunny 21 -6.1 18 -7.8 88 88 ESE 7 11 30.09 1019 10 16.0934 0 0
8:53 am 08:53 Mostly Sunny 24 -4.4 19 -7.2 81 81 E 9 15 30.08 1019 10 16.0934 0 0
9:53 am 09:53 Sunny 27 -2.8 20 -6.7 75 75 E 3 6 30.07 1018 10 16.0934 0 0
10:53 am 10:53 Mostly Sunny 31 -0.6 22 -5.6 69 69 ESE 5 7 30.03 1017 10 16.0934 0 0
11:53 am 11:53 Cloudy 35 1.7 23 -5 61 61 VRB 3 6 29.97 1015 10 16.0934 0 0
12:53 pm 12:53 Sunny 39 3.9 24 -4.4 55 55 SSE 5 7 29.92 1013 10 16.0934 0 0
1:53 pm 13:53 Sunny 41 5 25 -3.9 53 53 SE 5 7 29.88 1012 10 16.0934 0 0
2:53 pm 14:53 Sunny 44 6.7 26 -3.3 49 49 Calm 29.86 1011 10 16.0934 0 0
3:53 pm 15:53 Sunny 43 6.1 26 -3.3 51 51 Calm 29.87 1011 10 16.0934 0 0
4:53 pm 16:53 Mostly Sunny 39 3.9 26 -3.3 60 60 SSW 3 6 29.87 1012 10 16.0934 0 0
5:53 pm 17:53 Mostly Clear 38 3.3 26 -3.3 62 62 SSW 3 6 29.88 1012 10 16.0934 0 0
6:53 pm 18:53 Clear 35 1.7 25 -3.9 67 67 SSW 6 9 29.88 1012 10 16.0934 0 0
7:53 pm 19:53 Clear 30 -1.1 23 -5 75 75 ESE 5 7 29.88 1012 10 16.0934 0 0
8:53 pm 20:53 Clear 32 0 26 -3.3 79 79 NW 5 7 29.86 1011 10 16.0934 0 0
9:53 pm 21:53 Clear 29 -1.7 25 -3.9 85 85 Calm 29.85 1011 10 16.0934 0 0
10:53 pm 22:53 Clear 30 -1.1 26 -3.3 85 85 Calm 29.83 1010 10 16.0934 0 0
11:53 pm 23:53 Partly Cloudy 32 0 27 -2.8 82 82 NW 6 9 29.82 1010 10 16.0934 0 0

Powered by AerisWeather